DELTA 1 DEB, 10711

Orbit data source: Space-Track

DELTA 1 DEB, 10711 is space debris in SSO originally from a launch on Thu, 29 Jul 1976 UTC launched from the Air Force Western Test Range (AFWTR). Debris objects in space refer to the collection of defunct objects orbiting the Earth. Examples of debris include non-operational satellites, rocket bodies, and fragments generated from explosions, collisions, or faulty payload assembly.

Loading next visibility...
Identifier
10711, 1976-077AG
Orbit
SSO
Country
Flag of USUS
Related business
Manufacturer
Unknown
Mission
Spacecraft
Bus & Motor
Unknown
Mass
Unknown
Launch date (UTC)
1976-07-29 (50 years ago)
Launch vehicle
Unknown
Launch site
Air Force Western Test Range (AFWTR)
Object type
Payload
Rocket body
Debris
Shape & HBR
Unknown shape, 0.1 m
Radar Cross Section
Small (<0.1 m²)

Expand to show TLE details & history
Last TLE update: 11 hours ago

TLE from 11 hours ago
0 DELTA 1 DEB
1 10711U 76077AG  26118.75941715 -.00000035  00000-0  88357-4 0  9998
2 10711 102.4885 103.1595 0063574 164.1547  18.6920 12.29245946232655
Epoch: 2026-04-28T18:13Z
TLE epoch observation values (Epoch: 2026-04-28T18:13:33.641Z)
Latitude
-3.12954°
Longitude
152.34875°
Altitude
1,507.766 km
Speed
7.132 km/s
True Right ascension
18h 49m 52s
True Declination
-3° 06' 45"
Sunlit
Object was in daylight at epoch
Visualization orbit readout
Latitude
Unknown
Longitude
Unknown
Altitude
Unknown
Speed
Unknown
Apparent Right ascension
Unknown
Apparent Declination
Unknown
Sunlit
N/A
Visualization observer readout
Local Sidereal Time
13:01:38
Azimuth
Unknown
Elevation
Unknown
Doppler factor
Unknown
Orbital elements
Apogee altitude
1,600.544 km
Perigee altitude
1,499.738 km
Semi-major axis
7,928.278 km
Eccentricity
0.00636
Inclination
102.4885°
RAAN
103.1595°
Arg. of periapsis
164.1547°
True anomaly
18.92724°
Mean anomaly
18.692°
Eccentric anomaly
18.80944°
Mean motion
3.0745 °/min
Orbital period
117.09 mins
BSTAR
0.000088357
Loading maneuver chart data...
Computing Atmospheric mass density...
Loading historical data...
Loading historical data...
Loading historical data...
Loading historical data...
Loading historical data...
Loading historical data...
Loading historical data...

Documentation

Showing up to 5 results
|